Regional Weather Roundup
Issued by NWS

Home | Current Version | Previous Version | Graphics & Text | Print | Product List | Glossary On
Versions: 1 2 3 4 5 6 7 8 9 10 11 12 13 14 15 16 17 18 19 20 21 22 23 24 25 26 27 28 29 30 31 32 33 34 35 36 37 38 39 40 41 42 43 44 45 46 47 48 49 50
000
ASUS45 KBOI 251210
RWRID

IDAHO REGIONAL WEATHER ROUNDUP
NATIONAL WEATHER SERVICE BOISE ID
500 AM MST SUN FEB 25 2018

NOTE: "FAIR" INDICATES FEW OR NO CLOUDS BELOW 12000 FEET
WITH NO SIGNIFICANT WEATHER AND/OR OBSTRUCTIONS TO VISIBILITY

IDZ012-014-251300-
SOUTHWEST IDAHO


CITY           SKY/WX    TMP DP  RH WIND       PRES   REMARKS
BOISE          CLOUDY    21  15  78 SE5       30.16R WCI  15
CALDWELL       CLOUDY    18  15  88 E8        30.17S WCI   8
MOUNTAIN HOME  CLEAR      8   8 100 E5        30.16R WCI   0
$$

IDZ016-017-251300-
SOUTHCENTRAL IDAHO


CITY           SKY/WX    TMP DP  RH WIND       PRES   REMARKS
BURLEY         CLEAR     20  11  68 W20G36    30.07R WCI   4
JEROME         CLEAR     15   8  73 S8        30.10R WCI   4
TWIN FALLS     CLEAR     18  11  74 SW17G25   30.09F WCI   3
$$

IDZ019>023-251300-
SOUTHEAST IDAHO


CITY           SKY/WX    TMP DP  RH WIND       PRES   REMARKS
IDAHO FALLS    CLOUDY    18  15  88 SW16G33   29.98R WCI   3
POCATELLO      CLOUDY    20  16  84 SW20      30.04S WCI   4
REXBURG        CLOUDY    17  16  95 SW13      29.94F WCI   4
$$

IDZ006-010-011-018-031-032-251300-
CENTRAL IDAHO MOUNTAINS


CITY           SKY/WX    TMP DP  RH WIND       PRES   REMARKS
MCCALL         CLOUDY    16  13  88 CALM      29.97F
HAILEY           N/A    N/A N/A N/A MISG        N/A
STANLEY          N/A      8   3  80 SW5       29.94R WCI   0
SALMON         MOCLDY    17  14  88 CALM      29.94R
CHALLIS        CLEAR     17   4  56 SE6       29.93R WCI   9
$$

IDZ002-004-006-007-026-251300-
NORTHERN IDAHO


CITY           SKY/WX    TMP DP  RH WIND       PRES   REMARKS
LEWISTON       CLOUDY    34  26  72 NE6       29.98F WCI  29
LOWELL           N/A     28  27  96 CALM      30.06F
COEUR D`ALENE  CLOUDY    29  25  85 S18       29.85F WCI  16
MULLAN PASS    LGT SNOW  18  13  80 SW13G23   29.68F VSB 3/4 WCI   5
$$



USA.gov is the U.S. government's official web portal to all federal, state and local government web resources and services.